BAW7E EGKK-UKBB

Flight info

Callsign BAW7E
Flight time 2h 42m
Altitude 39000
Route FRANE1M M604 GASBA M197 REDFA L620 ARNEM DCT RKN L980 HLZ DCT ADLIR L980 POLON M70 TOLPA/K0911F390 M70 SLV2W
Aircraft A35K/H-SDE2E3GHIJ3J4J5LM1ORWXY/LB1D1

Departure

Time 2026-04-10 14:00
Airport London Gatwick Airport (EGKK)

Arrival

Time 2026-04-10 16:43
Airport Boryspil International Airport (UKBB)
Time Latitude Longitude Altitude Speed Heading
2026-04-10 12:52 51.15579 -0.16997 211 ft 0 kts 166°
2026-04-10 13:39 51.15584 -0.16999 211 ft 2 kts 167°
2026-04-10 13:40 51.15600 -0.17002 216 ft 2 kts 179°
2026-04-10 13:40 51.15617 -0.17000 216 ft 2 kts 194°
2026-04-10 13:40 51.15632 -0.16990 223 ft 2 kts 217°
2026-04-10 13:40 51.15644 -0.16972 219 ft 2 kts 238°
2026-04-10 13:41 51.15651 -0.16948 222 ft 2 kts 252°
2026-04-10 13:41 51.15654 -0.16932 220 ft 1 kts 257°
2026-04-10 13:41 51.15654 -0.16931 220 ft 0 kts 257°
2026-04-10 13:51 51.15652 -0.16944 221 ft 3 kts 257°
2026-04-10 13:51 51.15645 -0.16990 217 ft 6 kts 257°
2026-04-10 13:51 51.15634 -0.17068 214 ft 9 kts 257°
2026-04-10 13:52 51.15620 -0.17174 217 ft 11 kts 257°
2026-04-10 13:52 51.15614 -0.17212 217 ft 0 kts 256°
2026-04-10 13:52 51.15613 -0.17216 216 ft 1 kts 256°
2026-04-10 13:53 51.15609 -0.17241 212 ft 4 kts 256°
2026-04-10 13:53 51.15597 -0.17283 216 ft 3 kts 227°
2026-04-10 13:53 51.15569 -0.17305 217 ft 6 kts 192°
2026-04-10 13:53 51.15521 -0.17298 212 ft 8 kts 168°
2026-04-10 13:54 51.15452 -0.17277 217 ft 12 kts 169°
2026-04-10 13:54 51.15380 -0.17251 216 ft 7 kts 167°
2026-04-10 13:54 51.15315 -0.17228 217 ft 11 kts 167°
2026-04-10 13:54 51.15265 -0.17176 218 ft 6 kts 109°
2026-04-10 13:55 51.15261 -0.17104 218 ft 7 kts 85°
2026-04-10 13:55 51.15272 -0.17018 217 ft 9 kts 78°
2026-04-10 13:55 51.15287 -0.16903 211 ft 12 kts 78°
2026-04-10 13:55 51.15282 -0.16847 215 ft 0 kts 119°
2026-04-10 13:56 51.15280 -0.16845 214 ft 0 kts 132°
2026-04-10 13:58 51.15274 -0.16837 212 ft 2 kts 141°
2026-04-10 13:58 51.15252 -0.16821 216 ft 6 kts 159°
2026-04-10 13:58 51.15191 -0.16793 216 ft 12 kts 166°
2026-04-10 13:59 51.15120 -0.16820 218 ft 8 kts 234°
2026-04-10 13:59 51.15101 -0.16920 218 ft 21 kts 257°
2026-04-10 13:59 51.15017 -0.17524 220 ft 89 kts 257°
2026-04-10 13:59 51.14840 -0.18802 220 ft 146 kts 258°
2026-04-10 14:00 51.14594 -0.20581 450 ft 177 kts 252°
2026-04-10 14:00 51.14242 -0.22634 777 ft 208 kts 249°
2026-04-10 14:00 51.13936 -0.24970 1461 ft 222 kts 269°
2026-04-10 14:00 51.14486 -0.27322 2066 ft 237 kts 308°
2026-04-10 14:01 51.15877 -0.28644 2893 ft 238 kts 347°
2026-04-10 14:01 51.17503 -0.28369 3656 ft 240 kts 25°
2026-04-10 14:01 51.18719 -0.26612 4337 ft 238 kts 62°
2026-04-10 14:01 51.19500 -0.24287 5053 ft 239 kts 63°
2026-04-10 14:02 51.20318 -0.21956 5693 ft 244 kts 63°
2026-04-10 14:02 51.20989 -0.19452 6268 ft 248 kts 77°
2026-04-10 14:02 51.21256 -0.16641 6578 ft 266 kts 85°
2026-04-10 14:02 51.21544 -0.13619 6900 ft 283 kts 78°
2026-04-10 14:03 51.22421 -0.10787 7490 ft 289 kts 50°
2026-04-10 14:03 51.23901 -0.08672 8099 ft 292 kts 33°
2026-04-10 14:03 51.25581 -0.06825 8722 ft 296 kts 31°
2026-04-10 14:03 51.27300 -0.04960 9391 ft 300 kts 31°
2026-04-10 14:04 51.29033 -0.03041 9996 ft 305 kts 31°
2026-04-10 14:04 51.30783 -0.01061 10474 ft 315 kts 31°
2026-04-10 14:04 51.32623 0.01029 10716 ft 332 kts 31°
2026-04-10 14:05 51.36566 0.05496 11199 ft 362 kts 31°
2026-04-10 14:05 51.38664 0.07865 11449 ft 375 kts 31°
2026-04-10 14:05 51.40831 0.10315 11706 ft 386 kts 31°
2026-04-10 14:05 51.43045 0.12825 12140 ft 392 kts 31°
2026-04-10 14:06 51.45260 0.15347 12611 ft 395 kts 31°
2026-04-10 14:06 51.47524 0.17940 13074 ft 399 kts 31°
2026-04-10 14:06 51.49789 0.20551 13556 ft 402 kts 31°
2026-04-10 14:06 51.52066 0.23194 14012 ft 406 kts 31°
2026-04-10 14:07 51.54355 0.25866 14421 ft 409 kts 31°
2026-04-10 14:07 51.56669 0.28568 14844 ft 411 kts 31°
2026-04-10 14:07 51.58990 0.31287 15266 ft 414 kts 31°
2026-04-10 14:07 51.61324 0.34030 15699 ft 417 kts 31°
2026-04-10 14:08 51.63682 0.36802 16127 ft 420 kts 31°
2026-04-10 14:08 51.66020 0.39555 16539 ft 423 kts 31°
2026-04-10 14:08 51.68423 0.42391 16759 ft 424 kts 31°
2026-04-10 14:08 51.70809 0.45217 16972 ft 426 kts 31°
2026-04-10 14:09 51.73168 0.48017 17120 ft 427 kts 31°
2026-04-10 14:09 51.75562 0.50862 17128 ft 428 kts 31°
2026-04-10 14:09 51.77962 0.53719 17134 ft 429 kts 31°
2026-04-10 14:09 51.80356 0.56575 17133 ft 429 kts 31°
2026-04-10 14:10 51.82671 0.59670 17226 ft 436 kts 40°
2026-04-10 14:10 51.84560 0.63567 17680 ft 446 kts 56°
2026-04-10 14:10 51.85856 0.68169 18148 ft 452 kts 67°
2026-04-10 14:10 51.86813 0.73043 18523 ft 457 kts 72°
2026-04-10 14:11 51.87583 0.78057 18855 ft 461 kts 75°
2026-04-10 14:11 51.88272 0.83142 19192 ft 464 kts 76°
2026-04-10 14:11 51.88949 0.88274 19525 ft 467 kts 76°
2026-04-10 14:11 51.89643 0.93413 19853 ft 470 kts 76°
2026-04-10 14:12 51.90365 0.98590 20192 ft 473 kts 75°
2026-04-10 14:12 51.91102 1.03730 20523 ft 475 kts 75°
2026-04-10 14:12 51.91863 1.08955 20841 ft 478 kts 75°
2026-04-10 14:12 51.92633 1.14203 21163 ft 481 kts 75°
2026-04-10 14:13 51.93408 1.19488 21488 ft 483 kts 75°
2026-04-10 14:13 51.94184 1.24802 21981 ft 481 kts 75°
2026-04-10 14:13 51.94950 1.30076 22527 ft 479 kts 75°
2026-04-10 14:13 51.95710 1.35325 23058 ft 477 kts 75°
2026-04-10 14:14 51.96461 1.40546 23625 ft 474 kts 75°
2026-04-10 14:14 51.97207 1.45745 24113 ft 471 kts 75°
2026-04-10 14:14 51.97944 1.50905 24585 ft 469 kts 75°
2026-04-10 14:14 51.98675 1.56043 25072 ft 466 kts 75°
2026-04-10 14:15 51.99401 1.61156 25551 ft 463 kts 75°
2026-04-10 14:15 52.00119 1.66236 26047 ft 461 kts 75°
2026-04-10 14:15 52.00833 1.71294 26548 ft 458 kts 75°
2026-04-10 14:15 52.01530 1.76257 27052 ft 456 kts 75°
2026-04-10 14:16 52.02233 1.81272 27576 ft 454 kts 75°
2026-04-10 14:16 52.02932 1.86276 28029 ft 454 kts 75°
2026-04-10 14:16 52.03629 1.91282 28449 ft 455 kts 75°
2026-04-10 14:16 52.04330 1.96330 28860 ft 457 kts 75°
2026-04-10 14:17 52.05027 2.01365 29276 ft 458 kts 75°
2026-04-10 14:17 52.05725 2.06429 29705 ft 459 kts 74°
2026-04-10 14:17 52.06411 2.11424 30131 ft 460 kts 74°
2026-04-10 14:17 52.07107 2.16510 30502 ft 460 kts 74°
2026-04-10 14:18 52.07799 2.21587 30865 ft 461 kts 74°
2026-04-10 14:18 52.08488 2.26669 31247 ft 460 kts 73°
2026-04-10 14:18 52.09176 2.31752 31618 ft 460 kts 73°
2026-04-10 14:18 52.09862 2.36839 32003 ft 459 kts 73°
2026-04-10 14:19 52.10542 2.41900 32393 ft 458 kts 73°
2026-04-10 14:19 52.11228 2.46969 32778 ft 456 kts 71°
2026-04-10 14:19 52.12077 2.51900 33171 ft 451 kts 67°
2026-04-10 14:19 52.12974 2.56779 33580 ft 448 kts 66°
2026-04-10 14:20 52.13887 2.61621 33998 ft 445 kts 65°
2026-04-10 14:20 52.14798 2.66405 34375 ft 441 kts 65°
2026-04-10 14:20 52.15706 2.71164 34731 ft 438 kts 65°
2026-04-10 14:20 52.16603 2.75872 35089 ft 433 kts 65°
2026-04-10 14:21 52.17491 2.80549 35355 ft 432 kts 65°
2026-04-10 14:21 52.18366 2.85170 35593 ft 430 kts 65°
2026-04-10 14:21 52.19242 2.89819 35850 ft 428 kts 65°
2026-04-10 14:21 52.20112 2.94455 36074 ft 427 kts 65°
2026-04-10 14:22 52.20977 2.99079 36267 ft 426 kts 66°
2026-04-10 14:22 52.21840 3.03704 36431 ft 426 kts 66°
2026-04-10 14:22 52.22703 3.08336 36591 ft 427 kts 66°
2026-04-10 14:22 52.23562 3.12965 36738 ft 427 kts 66°
2026-04-10 14:23 52.24421 3.17604 36882 ft 428 kts 66°
2026-04-10 14:23 52.25281 3.22262 37017 ft 428 kts 66°
2026-04-10 14:23 52.26145 3.26931 37101 ft 430 kts 66°
2026-04-10 14:24 52.27879 3.36354 37264 ft 435 kts 67°
2026-04-10 14:24 52.28731 3.41027 37473 ft 433 kts 67°
2026-04-10 14:24 52.29587 3.45746 37672 ft 433 kts 68°
2026-04-10 14:24 52.30443 3.50470 37825 ft 432 kts 68°
2026-04-10 14:25 52.31299 3.55193 37950 ft 433 kts 68°
2026-04-10 14:25 52.32154 3.59920 38071 ft 434 kts 68°
2026-04-10 14:25 52.33008 3.64653 38170 ft 435 kts 68°
2026-04-10 14:26 52.34718 3.74157 38365 ft 437 kts 68°
2026-04-10 14:26 52.36280 3.83811 38530 ft 444 kts 76°
2026-04-10 14:27 52.36629 3.93970 38691 ft 450 kts 88°
2026-04-10 14:27 52.36555 3.99100 38815 ft 451 kts 90°
2026-04-10 14:27 52.36436 4.04228 38914 ft 452 kts 90°
2026-04-10 14:28 52.36157 4.14444 39094 ft 453 kts 90°
2026-04-10 14:28 52.35880 4.24826 39099 ft 460 kts 90°
2026-04-10 14:29 52.35610 4.35367 39091 ft 467 kts 90°
2026-04-10 14:29 52.35332 4.46076 39085 ft 475 kts 91°
2026-04-10 14:30 52.35039 4.56955 39148 ft 482 kts 91°
2026-04-10 14:30 52.34727 4.68017 39156 ft 491 kts 91°
2026-04-10 14:31 52.34402 4.79277 39158 ft 501 kts 91°
2026-04-10 14:31 52.34060 4.90762 39155 ft 511 kts 91°
2026-04-10 14:32 52.33698 5.02501 39151 ft 521 kts 91°
2026-04-10 14:32 52.32284 5.14128 39155 ft 531 kts 109°
2026-04-10 14:33 52.29703 5.25551 39149 ft 541 kts 112°
2026-04-10 14:33 52.26909 5.37022 39150 ft 544 kts 112°
2026-04-10 14:34 52.24579 5.46563 39150 ft 544 kts 112°
2026-04-10 14:34 52.21800 5.58024 39152 ft 544 kts 112°
2026-04-10 14:35 52.19023 5.69471 39154 ft 544 kts 112°
2026-04-10 14:35 52.16219 5.80963 39155 ft 544 kts 112°
2026-04-10 14:36 52.13412 5.92405 39155 ft 544 kts 112°
2026-04-10 14:36 52.10803 6.03956 39156 ft 545 kts 104°
2026-04-10 14:36 52.10153 6.10016 39155 ft 543 kts 93°
2026-04-10 14:37 52.10094 6.16061 39156 ft 541 kts 86°
2026-04-10 14:37 52.10630 6.28251 39150 ft 541 kts 82°
2026-04-10 14:38 52.11385 6.40440 39144 ft 541 kts 82°
2026-04-10 14:38 52.11745 6.46462 39143 ft 529 kts 82°
2026-04-10 14:38 52.12077 6.52355 39143 ft 517 kts 82°
2026-04-10 14:39 52.12693 6.63925 39144 ft 512 kts 82°
2026-04-10 14:39 52.13286 6.75494 39142 ft 514 kts 82°
2026-04-10 14:40 52.13850 6.87105 39144 ft 514 kts 83°
2026-04-10 14:40 52.14404 6.98718 39142 ft 514 kts 82°
2026-04-10 14:41 52.14988 7.10331 39141 ft 515 kts 82°
2026-04-10 14:41 52.15569 7.21942 39139 ft 515 kts 82°
2026-04-10 14:42 52.16126 7.33574 39135 ft 515 kts 82°
2026-04-10 14:42 52.16665 7.45143 39136 ft 515 kts 82°
2026-04-10 14:43 52.17199 7.56787 39134 ft 515 kts 82°
2026-04-10 14:43 52.17721 7.68424 39130 ft 515 kts 82°
2026-04-10 14:44 52.18206 7.80073 39131 ft 515 kts 83°
2026-04-10 14:44 52.18653 7.91691 39134 ft 515 kts 83°
2026-04-10 14:45 52.19091 8.03313 39138 ft 510 kts 83°
2026-04-10 14:45 52.19514 8.14687 39142 ft 506 kts 83°
2026-04-10 14:46 52.19932 8.26123 39139 ft 504 kts 83°
2026-04-10 14:46 52.20356 8.37504 39133 ft 503 kts 82°
2026-04-10 14:47 52.20793 8.48900 39133 ft 503 kts 82°
2026-04-10 14:47 52.21208 8.60299 39129 ft 503 kts 83°
2026-04-10 14:48 52.21601 8.71705 39131 ft 503 kts 83°
2026-04-10 14:48 52.21984 8.83084 39133 ft 503 kts 83°
2026-04-10 14:49 52.22359 8.94474 39136 ft 503 kts 83°
2026-04-10 14:49 52.22724 9.05876 39135 ft 503 kts 83°
2026-04-10 14:50 52.23077 9.17268 39127 ft 503 kts 83°
2026-04-10 14:50 52.23422 9.28668 39132 ft 503 kts 83°
2026-04-10 14:51 52.23762 9.39994 39133 ft 503 kts 83°
2026-04-10 14:51 52.24094 9.51484 39123 ft 503 kts 83°
2026-04-10 14:52 52.24412 9.62893 39133 ft 503 kts 83°
2026-04-10 14:52 52.24718 9.74233 39130 ft 503 kts 83°
2026-04-10 14:53 52.25030 9.85625 39122 ft 502 kts 81°
2026-04-10 14:53 52.26130 9.96779 39128 ft 496 kts 73°
2026-04-10 14:54 52.27505 10.07802 39113 ft 495 kts 73°
2026-04-10 14:54 52.28909 10.18785 39106 ft 494 kts 73°
2026-04-10 14:55 52.30289 10.29753 39104 ft 493 kts 73°
2026-04-10 14:55 52.31650 10.40754 39106 ft 493 kts 73°
2026-04-10 14:56 52.32994 10.51731 39104 ft 492 kts 73°
2026-04-10 14:56 52.34319 10.62644 39105 ft 491 kts 73°
2026-04-10 14:57 52.35635 10.73562 39104 ft 490 kts 74°
2026-04-10 14:57 52.36463 10.84708 39101 ft 494 kts 82°
2026-04-10 14:58 52.36785 10.95899 39098 ft 493 kts 84°
2026-04-10 14:58 52.37024 11.07075 39101 ft 492 kts 84°
2026-04-10 14:59 52.37256 11.18306 39089 ft 491 kts 84°
2026-04-10 14:59 52.37488 11.29450 39095 ft 491 kts 84°
2026-04-10 15:00 52.37714 11.40577 39096 ft 491 kts 84°
2026-04-10 15:00 52.37932 11.51787 39096 ft 490 kts 85°
2026-04-10 15:01 52.38138 11.62917 39093 ft 490 kts 85°
2026-04-10 15:01 52.38332 11.74016 39093 ft 489 kts 85°
2026-04-10 15:02 52.38515 11.85128 39099 ft 488 kts 85°
2026-04-10 15:02 52.38688 11.96274 39099 ft 487 kts 85°
2026-04-10 15:03 52.38850 12.07306 39103 ft 487 kts 85°
2026-04-10 15:03 52.39002 12.18370 39103 ft 486 kts 85°
2026-04-10 15:04 52.39143 12.29429 39108 ft 485 kts 86°
2026-04-10 15:04 52.39274 12.40431 39108 ft 485 kts 86°
2026-04-10 15:05 52.39452 12.57049 39109 ft 486 kts 86°
2026-04-10 15:05 52.39557 12.68074 39116 ft 486 kts 86°
2026-04-10 15:06 52.39652 12.79170 39112 ft 486 kts 86°
2026-04-10 15:06 52.39737 12.90273 39108 ft 486 kts 86°
2026-04-10 15:07 52.39810 13.01285 39106 ft 485 kts 86°
2026-04-10 15:07 52.39874 13.12304 39106 ft 485 kts 86°
2026-04-10 15:08 52.39928 13.23340 39104 ft 484 kts 86°
2026-04-10 15:08 52.39971 13.34392 39101 ft 483 kts 86°
2026-04-10 15:09 52.40004 13.45333 39107 ft 483 kts 86°
2026-04-10 15:09 52.40027 13.56350 39104 ft 483 kts 87°
2026-04-10 15:10 52.40044 13.67294 39107 ft 483 kts 87°
2026-04-10 15:10 52.40044 13.78304 39103 ft 483 kts 87°
2026-04-10 15:11 52.40029 13.89293 39104 ft 483 kts 87°
2026-04-10 15:11 52.40005 14.00349 39102 ft 484 kts 88°
2026-04-10 15:12 52.39953 14.11365 39101 ft 485 kts 89°
2026-04-10 15:12 52.39554 14.22401 39103 ft 487 kts 92°
2026-04-10 15:13 52.39032 14.33450 39103 ft 488 kts 92°
2026-04-10 15:13 52.38547 14.44551 39098 ft 488 kts 91°
2026-04-10 15:14 52.38089 14.55619 39096 ft 489 kts 91°
2026-04-10 15:14 52.37124 14.66652 39101 ft 490 kts 97°
2026-04-10 15:15 52.35951 14.77674 39105 ft 490 kts 98°
2026-04-10 15:15 52.34746 14.88595 39097 ft 490 kts 98°
2026-04-10 15:16 52.33533 14.99558 39100 ft 490 kts 98°
2026-04-10 15:16 52.32323 15.10474 39104 ft 489 kts 98°
2026-04-10 15:17 52.31102 15.21406 39098 ft 488 kts 98°
2026-04-10 15:17 52.29876 15.32287 39106 ft 487 kts 98°
2026-04-10 15:18 52.28645 15.43119 39099 ft 481 kts 98°
2026-04-10 15:18 52.27417 15.53810 39104 ft 474 kts 98°
2026-04-10 15:19 52.26212 15.64290 39100 ft 472 kts 98°
2026-04-10 15:19 52.24981 15.74855 39113 ft 472 kts 98°
2026-04-10 15:20 52.23751 15.85315 39103 ft 472 kts 99°
2026-04-10 15:20 52.22510 15.95827 39103 ft 471 kts 99°
2026-04-10 15:21 52.21462 16.04559 39105 ft 471 kts 99°
2026-04-10 15:21 52.19984 16.16749 39108 ft 470 kts 99°
2026-04-10 15:22 52.18926 16.25463 39108 ft 470 kts 99°
2026-04-10 15:22 52.17437 16.37631 39113 ft 470 kts 99°
2026-04-10 15:23 52.16355 16.46378 39112 ft 470 kts 99°
2026-04-10 15:23 52.15057 16.56807 39113 ft 470 kts 99°
2026-04-10 15:24 52.13749 16.67253 39117 ft 470 kts 99°
2026-04-10 15:24 52.12467 16.77679 39113 ft 470 kts 98°
2026-04-10 15:25 52.11416 16.88181 39115 ft 469 kts 97°
2026-04-10 15:25 52.10419 16.98615 39119 ft 470 kts 97°
2026-04-10 15:26 52.09371 17.09112 39124 ft 470 kts 97°
2026-04-10 15:26 52.08289 17.19602 39121 ft 470 kts 97°
2026-04-10 15:27 52.07193 17.30077 39121 ft 469 kts 97°
2026-04-10 15:27 52.06089 17.40536 39123 ft 469 kts 98°
2026-04-10 15:28 52.04983 17.50977 39124 ft 468 kts 98°
2026-04-10 15:28 52.03880 17.61334 39124 ft 468 kts 98°
2026-04-10 15:29 52.02763 17.71734 39122 ft 468 kts 98°
2026-04-10 15:29 52.01638 17.82124 39123 ft 467 kts 98°
2026-04-10 15:30 52.00508 17.92493 39123 ft 466 kts 98°
2026-04-10 15:30 51.99361 18.02855 39123 ft 465 kts 98°
2026-04-10 15:31 51.98214 18.13093 39122 ft 465 kts 98°
2026-04-10 15:31 51.97040 18.23474 39125 ft 464 kts 98°
2026-04-10 15:32 51.95875 18.33724 39126 ft 463 kts 98°
2026-04-10 15:32 51.94697 18.44007 39124 ft 462 kts 98°
2026-04-10 15:33 51.93519 18.54212 39121 ft 461 kts 98°
2026-04-10 15:33 51.92333 18.64395 39120 ft 461 kts 98°
2026-04-10 15:34 51.91134 18.74615 39121 ft 460 kts 98°
2026-04-10 15:34 51.89940 18.84717 39120 ft 459 kts 98°
2026-04-10 15:35 51.88730 18.94902 39120 ft 458 kts 98°
2026-04-10 15:35 51.87510 19.04965 39114 ft 458 kts 99°
2026-04-10 15:36 51.86272 19.15087 39110 ft 457 kts 99°
2026-04-10 15:36 51.85050 19.25115 39106 ft 456 kts 98°
2026-04-10 15:37 51.83830 19.35173 39102 ft 455 kts 99°
2026-04-10 15:37 51.82577 19.45241 39109 ft 457 kts 99°
2026-04-10 15:38 51.81302 19.55378 39102 ft 468 kts 99°
2026-04-10 15:38 51.79980 19.65831 39102 ft 479 kts 99°
2026-04-10 15:39 51.78756 19.76511 39109 ft 490 kts 97°
2026-04-10 15:39 51.77618 19.87492 39116 ft 501 kts 97°
2026-04-10 15:40 51.76431 19.98719 39114 ft 511 kts 97°
2026-04-10 15:40 51.75188 20.10093 39118 ft 518 kts 98°
2026-04-10 15:41 51.73910 20.21576 39116 ft 519 kts 98°
2026-04-10 15:41 51.72626 20.33008 39117 ft 519 kts 98°
2026-04-10 15:42 51.71328 20.44474 39113 ft 519 kts 98°
2026-04-10 15:42 51.70024 20.55902 39112 ft 519 kts 98°
2026-04-10 15:43 51.68711 20.67314 39112 ft 519 kts 98°
2026-04-10 15:43 51.67383 20.78749 39112 ft 519 kts 98°
2026-04-10 15:44 51.66041 20.90193 39112 ft 519 kts 98°
2026-04-10 15:44 51.64693 21.01591 39111 ft 519 kts 98°
2026-04-10 15:45 51.63337 21.12959 39111 ft 519 kts 99°
2026-04-10 15:45 51.61960 21.24407 39112 ft 519 kts 99°
2026-04-10 15:46 51.60579 21.35784 39113 ft 519 kts 99°
2026-04-10 15:46 51.59184 21.47178 39115 ft 519 kts 99°
2026-04-10 15:47 51.57782 21.58537 39116 ft 517 kts 99°
2026-04-10 15:47 51.56390 21.69698 39121 ft 506 kts 99°
2026-04-10 15:48 51.54994 21.80818 39121 ft 503 kts 99°
2026-04-10 15:48 51.53609 21.91772 39118 ft 503 kts 99°
2026-04-10 15:49 51.52204 22.02799 39119 ft 503 kts 99°
2026-04-10 15:49 51.50790 22.13796 39113 ft 503 kts 99°
2026-04-10 15:50 51.49366 22.24786 39115 ft 502 kts 99°
2026-04-10 15:50 51.47937 22.35733 39120 ft 502 kts 99°
2026-04-10 15:51 51.46497 22.46679 39124 ft 502 kts 99°
2026-04-10 15:51 51.45052 22.57589 39124 ft 502 kts 99°
2026-04-10 15:52 51.43585 22.68569 39125 ft 502 kts 100°
2026-04-10 15:52 51.42120 22.79445 39125 ft 501 kts 100°
2026-04-10 15:53 51.40638 22.90375 39121 ft 501 kts 100°
2026-04-10 15:53 51.39144 23.01310 39121 ft 501 kts 100°
2026-04-10 15:54 51.37654 23.12138 39109 ft 501 kts 100°
2026-04-10 15:54 51.36141 23.23053 39109 ft 501 kts 100°
2026-04-10 15:55 51.34630 23.33869 39102 ft 500 kts 100°
2026-04-10 15:55 51.33100 23.44753 39100 ft 500 kts 100°
2026-04-10 15:56 51.31560 23.55618 39098 ft 500 kts 100°
2026-04-10 15:56 51.30018 23.66428 39103 ft 500 kts 100°
2026-04-10 15:57 51.28468 23.77223 39095 ft 500 kts 101°
2026-04-10 15:57 51.26887 23.88119 39097 ft 501 kts 101°
2026-04-10 15:58 51.25313 23.98900 39088 ft 501 kts 101°
2026-04-10 15:58 51.23721 24.09734 39099 ft 501 kts 101°
2026-04-10 15:59 51.22126 24.20511 39086 ft 501 kts 101°
2026-04-10 15:59 51.20511 24.31348 39088 ft 501 kts 101°
2026-04-10 16:00 51.18867 24.42166 39087 ft 502 kts 103°
2026-04-10 16:00 51.17022 24.52922 39088 ft 502 kts 103°
2026-04-10 16:01 51.15186 24.63596 39085 ft 502 kts 103°
2026-04-10 16:01 51.13332 24.74384 39090 ft 502 kts 103°
2026-04-10 16:02 51.11489 24.85072 39087 ft 502 kts 103°
2026-04-10 16:02 51.09627 24.95804 39085 ft 502 kts 103°
2026-04-10 16:03 51.07767 25.06465 39085 ft 502 kts 103°
2026-04-10 16:03 51.05885 25.17186 39083 ft 502 kts 103°
2026-04-10 16:04 51.04003 25.27843 39085 ft 502 kts 104°
2026-04-10 16:04 51.02107 25.38522 39079 ft 502 kts 104°
2026-04-10 16:05 51.00197 25.49211 39085 ft 502 kts 104°
2026-04-10 16:05 50.98293 25.59806 39085 ft 502 kts 104°
2026-04-10 16:06 50.96356 25.70516 39080 ft 502 kts 104°
2026-04-10 16:06 50.94430 25.81109 39080 ft 502 kts 104°
2026-04-10 16:07 50.92481 25.91764 39083 ft 502 kts 104°
2026-04-10 16:07 50.90536 26.02334 39082 ft 502 kts 104°
2026-04-10 16:08 50.88568 26.12970 39077 ft 501 kts 104°
2026-04-10 16:08 50.86602 26.23534 39078 ft 501 kts 104°
2026-04-10 16:09 50.84621 26.34122 39077 ft 501 kts 105°
2026-04-10 16:09 50.82639 26.44652 39072 ft 501 kts 105°
2026-04-10 16:10 50.80973 26.53456 39065 ft 501 kts 105°
2026-04-10 16:10 50.78634 26.65753 39064 ft 501 kts 105°
2026-04-10 16:11 50.76956 26.74519 39066 ft 501 kts 105°
2026-04-10 16:11 50.74925 26.85085 39068 ft 501 kts 105°
2026-04-10 16:12 50.72900 26.95557 39064 ft 501 kts 105°
2026-04-10 16:13 50.69829 27.11328 39063 ft 500 kts 105°
2026-04-10 16:13 50.67774 27.21811 39063 ft 501 kts 105°
2026-04-10 16:14 50.65713 27.32269 39059 ft 501 kts 105°
2026-04-10 16:14 50.63637 27.42743 39061 ft 501 kts 105°
2026-04-10 16:15 50.61558 27.53177 39057 ft 500 kts 106°
2026-04-10 16:15 50.59460 27.63653 39057 ft 501 kts 106°
2026-04-10 16:16 50.57356 27.74100 39057 ft 501 kts 106°
2026-04-10 16:16 50.55252 27.84490 39053 ft 501 kts 106°
2026-04-10 16:17 50.53127 27.94932 38982 ft 499 kts 106°
2026-04-10 16:17 50.52064 28.00133 38779 ft 499 kts 106°
2026-04-10 16:17 50.51011 28.05273 38521 ft 499 kts 106°
2026-04-10 16:17 50.49944 28.10465 38247 ft 499 kts 106°
2026-04-10 16:18 50.48872 28.15672 37976 ft 499 kts 106°
2026-04-10 16:18 50.47799 28.20867 37709 ft 498 kts 106°
2026-04-10 16:18 50.46741 28.25976 37451 ft 498 kts 106°
2026-04-10 16:18 50.45664 28.31167 37190 ft 498 kts 107°
2026-04-10 16:19 50.44587 28.36339 36936 ft 497 kts 107°
2026-04-10 16:19 50.43509 28.41509 36731 ft 497 kts 107°
2026-04-10 16:19 50.42441 28.46612 36528 ft 497 kts 107°
2026-04-10 16:19 50.41364 28.51750 36319 ft 496 kts 107°
2026-04-10 16:20 50.40277 28.56922 36066 ft 496 kts 107°
2026-04-10 16:20 50.39207 28.61993 35828 ft 495 kts 107°
2026-04-10 16:20 50.38123 28.67128 35582 ft 495 kts 107°
2026-04-10 16:20 50.37035 28.72259 35346 ft 495 kts 107°
2026-04-10 16:21 50.35949 28.77375 35109 ft 494 kts 107°
2026-04-10 16:21 50.34874 28.82421 34874 ft 494 kts 107°
2026-04-10 16:21 50.33784 28.87527 34645 ft 493 kts 107°
2026-04-10 16:21 50.32692 28.92630 34396 ft 493 kts 107°
2026-04-10 16:22 50.31601 28.97718 33965 ft 492 kts 107°
2026-04-10 16:22 50.30508 29.02797 33401 ft 489 kts 107°
2026-04-10 16:22 50.29438 29.07759 32880 ft 484 kts 107°
2026-04-10 16:22 50.28364 29.12721 32352 ft 479 kts 106°
2026-04-10 16:23 50.27302 29.17624 31781 ft 475 kts 106°
2026-04-10 16:23 50.26237 29.22530 31144 ft 473 kts 106°
2026-04-10 16:23 50.25180 29.27386 30520 ft 471 kts 106°
2026-04-10 16:23 50.24122 29.32233 29867 ft 469 kts 106°
2026-04-10 16:24 50.23090 29.36958 29144 ft 467 kts 106°
2026-04-10 16:24 50.22033 29.41784 28424 ft 465 kts 106°
2026-04-10 16:24 50.20985 29.46557 27729 ft 463 kts 107°
2026-04-10 16:24 50.19938 29.51315 27052 ft 461 kts 107°
2026-04-10 16:25 50.18894 29.56049 26391 ft 459 kts 107°
2026-04-10 16:25 50.17917 29.60597 25755 ft 436 kts 105°
2026-04-10 16:25 50.17067 29.65033 25136 ft 416 kts 104°
2026-04-10 16:25 50.16267 29.69285 24536 ft 400 kts 104°
2026-04-10 16:26 50.15481 29.73420 23914 ft 395 kts 104°
2026-04-10 16:26 50.14692 29.77537 23111 ft 395 kts 105°
2026-04-10 16:26 50.13903 29.81614 22259 ft 390 kts 105°
2026-04-10 16:26 50.13131 29.85583 21457 ft 385 kts 105°
2026-04-10 16:27 50.12352 29.89571 20662 ft 381 kts 105°
2026-04-10 16:27 50.11583 29.93498 19887 ft 377 kts 105°
2026-04-10 16:27 50.10818 29.97388 19126 ft 373 kts 105°
2026-04-10 16:27 50.10061 30.01234 18397 ft 369 kts 105°
2026-04-10 16:28 50.09318 30.05002 17574 ft 365 kts 105°
2026-04-10 16:28 50.08571 30.08780 16749 ft 360 kts 105°
2026-04-10 16:28 50.07840 30.12467 15962 ft 351 kts 105°
2026-04-10 16:28 50.07126 30.16066 15193 ft 343 kts 105°
2026-04-10 16:29 50.06437 30.19531 14444 ft 336 kts 105°
2026-04-10 16:29 50.05752 30.22971 13905 ft 323 kts 105°
2026-04-10 16:29 50.05094 30.26261 13354 ft 311 kts 105°
2026-04-10 16:29 50.04467 30.29402 12839 ft 306 kts 105°
2026-04-10 16:30 50.03837 30.32555 12249 ft 304 kts 105°
2026-04-10 16:30 50.03206 30.35702 11715 ft 302 kts 106°
2026-04-10 16:30 50.02583 30.38805 11186 ft 300 kts 106°
2026-04-10 16:30 50.01970 30.41858 10686 ft 297 kts 106°
2026-04-10 16:31 50.01352 30.44927 10184 ft 295 kts 106°
2026-04-10 16:31 50.00739 30.47959 9661 ft 293 kts 106°
2026-04-10 16:31 50.00125 30.50997 9121 ft 296 kts 106°
2026-04-10 16:31 49.99514 30.54018 8580 ft 293 kts 106°
2026-04-10 16:32 49.98905 30.57020 8055 ft 289 kts 106°
2026-04-10 16:32 49.98304 30.59975 7529 ft 285 kts 105°
2026-04-10 16:32 49.97707 30.62910 7031 ft 282 kts 105°
2026-04-10 16:32 49.97120 30.65792 6548 ft 277 kts 105°
2026-04-10 16:33 49.96555 30.68560 6268 ft 267 kts 105°
2026-04-10 16:33 49.96000 30.71281 6004 ft 261 kts 105°
2026-04-10 16:33 49.95454 30.73950 5730 ft 256 kts 105°
2026-04-10 16:33 49.94917 30.76571 5486 ft 252 kts 105°
2026-04-10 16:34 49.94390 30.79142 5225 ft 248 kts 105°
2026-04-10 16:34 49.93953 30.81664 5007 ft 239 kts 95°
2026-04-10 16:34 49.94110 30.84090 4984 ft 217 kts 66°
2026-04-10 16:34 49.94862 30.86014 4979 ft 204 kts 43°
2026-04-10 16:35 49.96049 30.87122 5010 ft 199 kts 18°
2026-04-10 16:35 49.97380 30.87671 4912 ft 196 kts
2026-04-10 16:35 49.98708 30.87913 4841 ft 196 kts
2026-04-10 16:35 50.00073 30.88036 4796 ft 195 kts
2026-04-10 16:36 50.01437 30.88136 4730 ft 196 kts
2026-04-10 16:36 50.02806 30.88230 4624 ft 196 kts
2026-04-10 16:36 50.04155 30.88319 4563 ft 196 kts
2026-04-10 16:36 50.05520 30.88411 4482 ft 196 kts
2026-04-10 16:37 50.06886 30.88504 4400 ft 196 kts
2026-04-10 16:37 50.08247 30.88600 4327 ft 196 kts
2026-04-10 16:37 50.09609 30.88698 4242 ft 195 kts
2026-04-10 16:37 50.10966 30.88799 4161 ft 195 kts
2026-04-10 16:38 50.12320 30.88901 4083 ft 195 kts
2026-04-10 16:38 50.13642 30.89000 4011 ft 181 kts
2026-04-10 16:38 50.14855 30.89088 3992 ft 173 kts
2026-04-10 16:38 50.16056 30.89175 3841 ft 172 kts
2026-04-10 16:39 50.17254 30.89264 3610 ft 171 kts
2026-04-10 16:39 50.18435 30.89351 3364 ft 172 kts
2026-04-10 16:39 50.19632 30.89439 3104 ft 170 kts
2026-04-10 16:39 50.20811 30.89525 2873 ft 169 kts
2026-04-10 16:40 50.21985 30.89612 2628 ft 168 kts
2026-04-10 16:40 50.23148 30.89697 2385 ft 167 kts
2026-04-10 16:40 50.24310 30.89782 2162 ft 167 kts
2026-04-10 16:40 50.25475 30.89869 1918 ft 168 kts
2026-04-10 16:41 50.26631 30.89952 1680 ft 168 kts
2026-04-10 16:41 50.27782 30.90037 1441 ft 160 kts
2026-04-10 16:41 50.28845 30.90114 1210 ft 145 kts
2026-04-10 16:41 50.29812 30.90186 1008 ft 133 kts 360°
2026-04-10 16:42 50.30715 30.90251 826 ft 130 kts
2026-04-10 16:42 50.31628 30.90330 662 ft 132 kts
2026-04-10 16:42 50.32556 30.90385 452 ft 134 kts 359°
2026-04-10 16:42 50.33388 30.90448 423 ft 93 kts
2026-04-10 16:43 50.33730 30.90471 423 ft 5 kts
2026-04-10 16:43 50.33740 30.90472 427 ft 7 kts
2026-04-10 16:43 50.33864 30.90481 430 ft 26 kts
2026-04-10 16:43 50.34080 30.90496 421 ft 33 kts
2026-04-10 16:44 50.34295 30.90469 419 ft 28 kts 342°
2026-04-10 16:44 50.34454 30.90352 417 ft 24 kts 332°
2026-04-10 16:44 50.34506 30.90310 418 ft 0 kts 333°
2026-04-10 16:45 50.34512 30.90305 420 ft 3 kts 333°
2026-04-10 16:46 50.34541 30.90283 417 ft 6 kts 333°
2026-04-10 16:46 50.34592 30.90243 417 ft 10 kts 335°
2026-04-10 16:46 50.34661 30.90219 421 ft 11 kts
2026-04-10 16:46 50.34750 30.90222 424 ft 15 kts
2026-04-10 16:47 50.34857 30.90219 418 ft 15 kts 338°
2026-04-10 16:47 50.34890 30.90096 421 ft 13 kts 272°
2026-04-10 16:47 50.34895 30.89946 421 ft 13 kts 274°
2026-04-10 16:47 50.34898 30.89883 430 ft 1 kts 274°
2026-04-10 16:48 50.34899 30.89866 430 ft 0 kts 274°